Location: Finnegan
(51.1333°N, 112.0833°W)
Time: 00:22:10
(UTC+00:00)

N. Korean satellite - Pass Details

Date: 09 December 2021
Orbit: 446 x 492 km, 97.3° (Epoch: 16 January)

Event Time Altitude Azimuth Distance (km) Brightness Sun altitude
Rises 00:24:57 0° 190° (S) 2,512 10.7 -9.4°
Reaches altitude 10° 00:27:12 10° 202° (SSW) 1,631 10.0 -9.7°
Maximum altitude 00:30:17 28° 264° (W) 897 8.8 -10.1°
Drops below altitude 10° 00:33:21 10° 326° (NW) 1,619 9.4 -10.6°
Sets 00:35:35 0° 338° (NNW) 2,491 10.2 -10.9°
